Location: Buena Vista Beach
(41.8098°N, 81.1279°W)
Time: 07:49:39
(UTC+00:00)

H-2A R/B - Pass Details

Date: 29 October 2020
Orbit: 733 x 837 km, 98.2° (Epoch: 26 November)

Event Time Altitude Azimuth Distance (km) Brightness Sun altitude
Rises 22:58:55 0° 119° (ESE) 3,363 4.9 -7.5°
Reaches altitude 10° 23:02:01 10° 101° (E) 2,443 4.0 -8.1°
Maximum altitude 23:05:28 17° 61° (ENE) 1,976 3.6 -8.7°
Drops below altitude 10° 23:08:55 10° 21° (NNE) 2,459 4.3 -9.3°
Sets 23:12:03 0° 3° (N) 3,394 5.2 -9.9°
